Graham, TX

11:07 PM CDT on March 29, 2017 (GMT -0500)
Graham

Weather History for KRPH - April, 2013

Change the Weather History Date:

Thursday, April 18, 2013

  Actual Average (KMWL) Record (KMWL)
Temperature  
Mean Temperature 58 °F -  
Max Temperature 74 °F 75 °F 100 °F (2011)
Min Temperature 41 °F 52 °F 39 °F (1999)
Degree Days  
Heating Degree Days 8    
Growing Degree Days 8 (Base 50)    
Moisture  
Dew Point 37 °F    
Average Humidity 62    
Maximum Humidity 93    
Minimum Humidity 36    
Precipitation  
Precipitation 0.24 in - - ()
Sea Level Pressure  
Sea Level Pressure 29.95 in    
Wind  
Wind Speed 19 mph (NW)    
Max Wind Speed 36 mph    
Max Gust Speed 44 mph    
Visibility 10 miles    
Events Rain    
Averages and records for this station are not official NWS values.
T = Trace of Precipitation, MM = Missing Value Source: NWS Daily Summary

Daily Weather History Graph

Daily Weather History Graph

Search for Another Location

Airport or City:

Trip Planner

Search our weather history database for the weather conditions in past years. The results will help you decide how hot, cold, wet, or windy it might be!

Date:

Astronomy

Apr. 18, 2013 Rise Set
Actual Time 7:00 AM CDT 8:07 PM CDT
Civil Twilight 6:34 AM CDT 8:32 PM CDT
Nautical Twilight 6:04 AM CDT 9:03 PM CDT
Astronomical Twilight 5:32 AM CDT 9:34 PM CDT
Moon 1:16 PM CDT (4/18) 2:18 AM CDT (4/18)
Length of Visible Light 13h 58m
Length of Day
13h 06m
First Quarter, 52% of the Moon is Illuminated
Apr 18
First Quarter
Apr 25
Full
May 2
Last Quarter
May 9
New
May 17
First Quarter

Hourly Weather History & Observations

Time (CDT) Temp. Windchill Dew Point Humidity Pressure Visibility Wind Dir Wind Speed Gust Speed Precip Events Conditions
12:15 AM 74.8 °F - 66.2 °F 74% 29.57 in 10.0 mi SSE 18.4 mph 24.2 mph N/A   Mostly Cloudy
12:35 AM 74.5 °F - 66.4 °F 76% 29.56 in 10.0 mi SSE 15.0 mph 18.4 mph N/A   Mostly Cloudy
12:55 AM 74.3 °F - 66.4 °F 76% 29.55 in 10.0 mi SSE 15.0 mph 26.5 mph N/A   Mostly Cloudy
1:15 AM 74.5 °F - 66.7 °F 77% 29.57 in 10.0 mi South 6.9 mph 24.2 mph N/A   Overcast
1:35 AM 73.4 °F - 62.8 °F 69% 29.66 in 7.0 mi NW 35.7 mph 41.4 mph N/A   Overcast
1:55 AM 54.1 °F - 49.1 °F 83% 29.70 in 10.0 mi NW 28.8 mph 39.1 mph N/A   Overcast
2:15 AM 49.6 °F - 46.4 °F 89% 29.72 in 7.0 mi NW 26.5 mph 43.7 mph N/A Rain Light Rain
2:35 AM 47.3 °F - 45.1 °F 92% 29.73 in 5.0 mi NW 17.3 mph 26.5 mph 0.07 in Rain Light Rain
2:55 AM 46.2 °F 39.3 °F 43.9 °F 92% 29.71 in 2.5 mi NNW 17.3 mph 28.8 mph 0.15 in Rain Heavy Rain
3:15 AM 45.9 °F 36.6 °F 44.1 °F 93% 29.75 in 7.0 mi NW 28.8 mph 38.0 mph 0.06 in Rain Rain
3:35 AM 44.8 °F 35.3 °F 42.1 °F 90% 29.73 in 10.0 mi NW 27.6 mph 38.0 mph 0.09 in Rain Light Rain
3:55 AM 44.4 °F 36.6 °F 42.1 °F 91% 29.76 in 10.0 mi NW 18.4 mph 26.5 mph 0.09 in Rain Light Rain
4:15 AM 44.4 °F 36.4 °F 41.0 °F 88% 29.76 in 10.0 mi NW 19.6 mph 38.0 mph N/A   Mostly Cloudy
4:35 AM 44.1 °F 37.1 °F 41.2 °F 90% 29.81 in 10.0 mi NW 15.0 mph - N/A   Mostly Cloudy
4:55 AM 44.6 °F 38.1 °F 41.0 °F 87% 29.88 in 10.0 mi WNW 13.8 mph 24.2 mph N/A   Overcast
5:15 AM 44.6 °F 37.8 °F 40.6 °F 86% 29.87 in 10.0 mi NNW 15.0 mph 19.6 mph N/A   Overcast
5:35 AM 44.2 °F 37.0 °F 40.3 °F 86% 29.87 in 10.0 mi NW 16.1 mph 25.3 mph N/A   Overcast
6:15 AM 44.1 °F 35.4 °F 38.8 °F 82% 29.88 in 10.0 mi NW 21.9 mph 29.9 mph N/A   Overcast
6:35 AM 43.9 °F 35.2 °F 37.8 °F 79% 29.89 in 10.0 mi NW 21.9 mph 35.7 mph N/A   Overcast
6:55 AM 43.3 °F 34.7 °F 37.2 °F 79% 29.90 in 10.0 mi NW 20.7 mph 32.2 mph N/A   Overcast
7:15 AM 43.0 °F 34.0 °F 36.9 °F 79% 29.92 in 10.0 mi NNW 21.9 mph 28.8 mph N/A   Overcast
7:35 AM 42.3 °F 33.1 °F 35.1 °F 76% 29.94 in 10.0 mi NNW 21.9 mph 28.8 mph N/A   Overcast
7:55 AM 41.9 °F 33.1 °F 34.7 °F 76% 29.96 in 10.0 mi NW 19.6 mph 24.2 mph N/A   Mostly Cloudy
8:15 AM 41.9 °F 33.7 °F 34.3 °F 75% 29.98 in 10.0 mi NNW 17.3 mph 28.8 mph N/A   Overcast
8:35 AM 41.5 °F 32.9 °F 33.6 °F 73% 29.98 in 10.0 mi NW 18.4 mph 26.5 mph N/A   Overcast
8:55 AM 41.5 °F 32.4 °F 34.2 °F 75% 29.98 in 10.0 mi NNW 20.7 mph 29.9 mph N/A   Overcast
9:15 AM 41.5 °F 32.1 °F 32.7 °F 71% 29.98 in 10.0 mi NNW 21.9 mph 31.1 mph N/A   Overcast
9:35 AM 41.9 °F 32.1 °F 32.4 °F 69% 29.97 in 10.0 mi NW 24.2 mph 32.2 mph N/A   Overcast
9:55 AM 42.3 °F 33.1 °F 32.9 °F 69% 29.98 in 10.0 mi NNW 21.9 mph 33.4 mph N/A   Overcast
10:15 AM 42.4 °F 34.1 °F 32.2 °F 67% 30.00 in 10.0 mi NW 18.4 mph 28.8 mph N/A   Overcast
10:35 AM 42.8 °F 34.3 °F 32.0 °F 66% 30.01 in 10.0 mi NW 19.6 mph 31.1 mph N/A   Overcast
10:55 AM 43.9 °F 35.0 °F 32.2 °F 63% 30.01 in 10.0 mi NNW 23.0 mph 27.6 mph N/A   Mostly Cloudy
11:15 AM 46.8 °F - 32.7 °F 58% 30.01 in 10.0 mi NNW 19.6 mph 28.8 mph N/A   Mostly Cloudy
11:35 AM 47.5 °F - 32.9 °F 57% 30.01 in 10.0 mi NNW 20.7 mph 32.2 mph N/A   Scattered Clouds
11:55 AM 48.4 °F - 32.9 °F 55% 30.01 in 10.0 mi NW 23.0 mph 32.2 mph N/A   Scattered Clouds
12:15 PM 49.3 °F - 33.1 °F 54% 30.02 in 10.0 mi NW 19.6 mph 27.6 mph N/A   Scattered Clouds
12:35 PM 50.0 °F - 33.6 °F 53% 30.02 in 10.0 mi NW 17.3 mph 28.8 mph N/A   Scattered Clouds
12:55 PM 50.7 °F - 33.3 °F 51% 30.01 in 10.0 mi NW 20.7 mph 27.6 mph N/A   Scattered Clouds
1:15 PM 51.3 °F - 33.6 °F 51% 30.01 in 10.0 mi NW 20.7 mph 26.5 mph N/A   Scattered Clouds
1:35 PM 51.6 °F - 33.3 °F 50% 30.01 in 10.0 mi NNW 18.4 mph 32.2 mph N/A   Scattered Clouds
1:55 PM 52.5 °F - 34.2 °F 50% 30.01 in 10.0 mi WNW 17.3 mph 27.6 mph N/A   Scattered Clouds
2:15 PM 54.0 °F - 33.8 °F 46% 30.01 in 10.0 mi NNW 16.1 mph 32.2 mph N/A   Scattered Clouds
2:35 PM 54.5 °F - 33.4 °F 45% 30.01 in 10.0 mi NNW 21.9 mph 28.8 mph N/A   Scattered Clouds
2:55 PM 55.2 °F - 33.1 °F 43% 30.01 in 10.0 mi NNW 19.6 mph 26.5 mph N/A   Clear
3:15 PM 55.9 °F - 32.9 °F 42% 30.01 in 10.0 mi NW 13.8 mph 24.2 mph N/A   Clear
3:35 PM 55.9 °F - 32.4 °F 41% 30.01 in 10.0 mi NW 16.1 mph 28.8 mph N/A   Clear
3:55 PM 56.1 °F - 32.5 °F 41% 30.00 in 10.0 mi NNW 17.3 mph 28.8 mph N/A   Clear
4:15 PM 57.4 °F - 32.4 °F 39% 30.00 in 10.0 mi NW 18.4 mph 27.6 mph N/A   Scattered Clouds
4:35 PM 57.7 °F - 32.0 °F 38% 30.00 in 10.0 mi NNW 20.7 mph 32.2 mph N/A   Clear
4:55 PM 56.7 °F - 32.0 °F 39% 30.00 in 10.0 mi NNW 19.6 mph 29.9 mph N/A   Clear
5:15 PM 57.2 °F - 31.6 °F 38% 30.00 in 10.0 mi NNW 18.4 mph 29.9 mph N/A   Clear
5:35 PM 56.8 °F - 31.6 °F 38% 30.01 in 10.0 mi NNW 21.9 mph 29.9 mph N/A   Clear
5:55 PM 57.0 °F - 31.1 °F 37% 30.01 in 10.0 mi NNW 19.6 mph 24.2 mph N/A   Scattered Clouds
6:15 PM 55.8 °F - 30.0 °F 37% 30.03 in 10.0 mi NNW 16.1 mph 26.5 mph N/A   Scattered Clouds
6:35 PM 54.7 °F - 30.6 °F 40% 30.03 in 10.0 mi NNW 16.1 mph 24.2 mph N/A   Scattered Clouds
6:55 PM 55.2 °F - 28.6 °F 36% 30.05 in 10.0 mi NNW 18.4 mph 24.2 mph N/A   Scattered Clouds
7:15 PM 54.0 °F - 28.6 °F 38% 30.06 in 10.0 mi NNW 15.0 mph 25.3 mph N/A   Clear
7:35 PM 52.9 °F - 28.4 °F 39% 30.07 in 10.0 mi NNW 16.1 mph 27.6 mph N/A   Scattered Clouds
7:55 PM 51.6 °F - 27.9 °F 40% 30.08 in 10.0 mi NW 18.4 mph 24.2 mph N/A   Clear
8:15 PM 50.2 °F - 28.2 °F 43% 30.10 in 10.0 mi NNW 16.1 mph 19.6 mph N/A   Clear
8:35 PM 49.6 °F - 28.0 °F 43% 30.11 in 10.0 mi NW 11.5 mph 17.3 mph N/A   Clear
9:55 PM 45.7 °F 44.4 °F 29.3 °F 53% 30.15 in 10.0 mi NNW 3.5 mph - N/A   Clear
10:15 PM 44.6 °F 43.1 °F 30.0 °F 57% 30.16 in 10.0 mi NNW 3.5 mph - N/A   Clear
10:35 PM 43.7 °F 40.3 °F 30.9 °F 61% 30.16 in 10.0 mi North 5.8 mph - N/A   Clear
10:55 PM 43.7 °F 40.3 °F 31.1 °F 61% 30.18 in 10.0 mi NNW 5.8 mph - N/A   Clear
11:15 PM 43.7 °F 40.3 °F 30.2 °F 59% 30.18 in 10.0 mi NNW 5.8 mph - N/A   Clear
11:35 PM 42.8 °F 39.3 °F 29.8 °F 60% 30.18 in 10.0 mi NNW 5.8 mph - N/A   Clear
11:55 PM 42.3 °F 38.6 °F 30.0 °F 62% 30.18 in 10.0 mi NW 5.8 mph - N/A   Clear